Regional Weather Roundup
Issued by NWS

Home | Current Version | Previous Version | Text Only | Print | Product List | Glossary Off
Versions: 1 2 3 4 5 6 7 8 9 10 11 12 13 14 15 16 17 18 19 20 21 22 23 24 25 26 27 28 29 30 31 32 33 34 35 36 37 38 39 40 41 42 43 44 45 46 47 48 49 50

000
ASUS45 KBOU 131310
RWRCO

WEATHER ROUNDUP FOR COLORADO
NATIONAL WEATHER SERVICE DENVER/BOULDER CO
700 AM MDT SUN JUL 13 2014

NOTE: "FAIR" INDICATES FEW OR NO CLOUDS BELOW 12000 FEET WITH NO
SIGNIFICANT WEATHER AND/OR OBSTRUCTIONS TO VISIBILITY.

COZ001>005-013-030-031-131400-
...NORTHWEST COLORADO...

CITY           SKY/WX    TMP DP  RH WIND       PRES   REMARKS
CRAIG          SUNNY     51  51 100 CALM      30.38R
HAYDEN         SUNNY     57  48  72 SE8       30.39R
MEEKER         SUNNY     57  49  74 SE5       30.37R
MOUNT WERNER   NOT AVBL
STEAMBOAT SPGS SUNNY     52  46  80 CALM      30.42R
WALDEN         MOSUNNY   43  37  81 SE5       30.50S
$$

COZ006>008-011-131400-
...WEST CENTRAL VALLEYS...

CITY           SKY/WX    TMP DP  RH WIND       PRES   REMARKS
GRAND JUNCTION CLEAR     72  51  47 SE12      30.23R
MONTROSE       MOSUNNY   63  49  60 SE7       30.33R
EAGLE          MOSUNNY   55  54  94 CALM      30.43R
RIFLE          SUNNY     62  56  80 CALM      30.30S
DELTA          MOSUNNY   66  52  59 CALM      30.29R
NUCLA          PTCLDY    64  46  52 E7        30.35R
$$

COZ017>023-064>068-131400-
...SOUTHWEST COLORADO...

CITY           SKY/WX    TMP DP  RH WIND       PRES   REMARKS
DURANGO        PTCLDY    55  50  83 CALM      30.38S
CORTEZ         CLEAR     62  51  67 E6        30.31R
PAGOSA SPRINGS MOSUNNY   59  50  71 CALM      30.46S
TELLURIDE      PTCLDY    55  46  71 SE6       30.55R
WOLF CREEK PAS NOT AVBL
$$

COZ009-010-012-014-032>034-037-058>063-131400-
...CENTRAL COLORADO...

CITY           SKY/WX    TMP DP  RH WIND       PRES   REMARKS
ASPEN          MOSUNNY   54  47  77 CALM      30.46R
BUENA VISTA    MOSUNNY   54  51  89 E3        30.51S
COPPER MTN     MOSUNNY   54  41  62 W3        30.76R
BERTHOUD PASS  FAIR      43  30  61 W7        30.80R
COTTONWOOD PAS MOSUNNY   54  48  82 SE6       30.62S
GUNNISON       MOSUNNY   52  46  82 SE3       30.52R
KREMMLING      MOSUNNY   52  46  82 CALM      30.49S
LEADVILLE      CLOUDY    47  44  90 NE5       30.62R
MONARCH PASS   SUNNY     46  39  76 SW8       30.85S
SALIDA         MOSUNNY   55  49  78 W6        30.56S
SUNLIGHT       MOSUNNY   55  46  71 CALM      30.68S
WILKERSON PASS SUNNY     46  45  93 CALM      30.74S
$$

COZ069>075-131400-
...SAN LUIS VALLEY/SANGRE DE CRISTO MOUNTAINS...

CITY           SKY/WX    TMP DP  RH WIND       PRES   REMARKS
ALAMOSA        MOSUNNY   53  47  79 CALM      30.46R
LA VETA PASS   CLOUDY    48  43  81 E3        30.64R
SAGUACHE       NOT AVBL
$$

COZ035-036-038>040-131400-
...NORTHERN COLORADO FRONT RANGE...

CITY           SKY/WX    TMP DP  RH WIND       PRES   REMARKS
DENVER INTL AP PTSUNNY   63  57  81 SW7       30.33F
DMNS CITY PARK   N/A     64  56  77 S5        30.33S
AURORA         PTSUNNY   61  59  94 S6        30.35F
FRONT RANGE AP NOT AVBL
ERIE MUNI ARPT SUNNY     60  57  91 SW5       30.32S
BOULDER MUN AP SUNNY     64  52  63 S5        30.32F
CENTENNIAL     PTSUNNY   61  56  83 S3        30.36F
BROOMFIELD     MOSUNNY   61  55  82 CALM      30.35F
FORT COLLINS   MOSUNNY   63  57  82 NE6       30.33R
LONGMONT       MOSUNNY   63  56  80 CALM      30.33S
$$

COZ041-046-047-076>085-087-088-131400-
...PIKES PEAK/PALMER DIVIDE AND SOUTHERN FOOTHILLS...

CITY           SKY/WX    TMP DP  RH WIND       PRES   REMARKS
COLO. SPRINGS  PTSUNNY   62  55  77 N9        30.39S
A. F. ACADEMY  SUNNY     56  56  99 N6        30.40F
ELLICOTT       MOSUNNY   62  56  80 N6        30.37S
FALCON         MOSUNNY   61  55  78 N6        30.43S
FORT CARSON    MOSUNNY   61  56  86 VRB7      30.36R
LIMON          MOSUNNY   62  59  90 CALM      30.33F
MONUMENT HILL  SUNNY     59  54  82 W3        30.43S
TRINIDAD       CLOUDY    63  59  87 SW7       30.37S
$$

COZ042>045-048>051-090-091-131400-
...NORTHEAST COLORADO...

CITY           SKY/WX    TMP DP  RH WIND       PRES   REMARKS
GREELEY ARPT   NOT AVBL
AKRON          SUNNY     66  62  87 CALM      30.29F
BURLINGTON     CLOUDY    67  63  87 N9        30.23F
WRAY           MOSUNNY   66  66 100 CALM      30.24F
STERLING       SUNNY     66  64  94 CALM      30.25F
HOLYOKE        MOSUNNY   66  61  82 N3        30.24F
FORT MORGAN    SUNNY     63  59  87 CALM      30.29S
$$

COZ086-089-092>099-131400-
...SOUTHEAST COLORADO...

CITY           SKY/WX    TMP DP  RH WIND       PRES   REMARKS
PUEBLO         PTSUNNY   63  63 100 W6        30.30S
LA JUNTA       CLOUDY    68  63  84 W10       30.25R
LAMAR          PTSUNNY   69  64  84 NW5       30.19F
SPRINGFIELD      N/A     67  60  78 NW10      30.27R
$$


USA.gov is the U.S. government's official web portal to all federal, state and local government web resources and services.